Regional Weather Roundup
Issued by NWS

Home | Current Version | Previous Version | Graphics & Text | Print | Product List | Glossary On
Versions: 1 2 3 4 5 6 7 8 9 10 11 12 13 14 15 16 17 18 19 20 21 22 23 24 25 26 27 28 29 30 31 32 33 34 35 36 37 38 39 40 41 42 43 44 45 46 47 48 49 50
000
ASUS43 KDTX 220001
RWRMI
MICHIGAN HOURLY REGIONAL WEATHER ROUNDUP
NATIONAL WEATHER SERVICE DETROIT/PONTIAC MI
700 PM EST SUN DEC 21 2014

NOTE: "FAIR" INDICATES FEW OR NO CLOUDS BELOW 12,000 FEET WITH NO
SIGNIFICANT WEATHER AND/OR OBSTRUCTION TO VISIBILITY.

MIZ047>049-052>055-059>063-066>070-074>076-081>083-220100-
SOUTHEAST LOWER MICHIGAN

CITY           SKY/WX    TMP DP  RH WIND       PRES   REMARKS
ADRIAN         CLOUDY    31  26  82 S7        30.21S WCI  24
6HR MIN TEMP:  31; 6HR MAX TEMP:  33;

ALMA           CLOUDY    32  29  88 SE6       30.18S FOG     WCI  26
ANN ARBOR      CLOUDY    31  24  75 SE7       30.22S WCI  24
BAD AXE        CLOUDY    31  27  82 SE3       30.22F
6HR MIN TEMP:  31; 6HR MAX TEMP:  32;

CARO           CLOUDY    32  25  74 E3        30.20F
DETROIT CITY   CLOUDY    31  22  69 SE3       30.25S
6HR MIN TEMP:  31; 6HR MAX TEMP:  37;

DETROIT        CLOUDY    31  23  72 E6        30.24S WCI  25
6HR MIN TEMP:  31; 6HR MAX TEMP:  36;

FLINT          CLOUDY    33  24  69 SE5       30.21S WCI  29
6HR MIN TEMP:  33; 6HR MAX TEMP:  35;

GROSSE ILE     PTCLDY    30  25  80 E6        30.22S WCI  24
HILLSDALE      MOCLDY    31  27  88 SE6       30.17R FOG     WCI  25
6HR MIN TEMP:  31; 6HR MAX TEMP:  33;

HOWELL         CLOUDY    31  27  83 SE6       30.19S WCI  25
6HR MIN TEMP:  31; 6HR MAX TEMP:  32;


CITY           SKY/WX    TMP DP  RH WIND       PRES   REMARKS
JACKSON        CLOUDY    31  26  82 SE9       30.18S HAZE    WCI  23
6HR MIN TEMP:  31; 6HR MAX TEMP:  34;

LAMBERTVILLE   FAIR      32  27  80 E3        30.22S
LANSING        CLOUDY    32  26  78 SE10      30.18F WCI  24
6HR MIN TEMP:  32; 6HR MAX TEMP:  34;

LAPEER         CLOUDY    32  25  77 SE7       30.21F WCI  25
MASON          CLOUDY    31  27  83 SE8       30.18F WCI  24
MONROE         PTCLDY    30  25  80 E5        30.21S WCI  25
MT. CLEMENS    CLOUDY    31  26  83 SE9       30.22S WCI  23
6HR MIN TEMP:  29; 6HR MAX TEMP:  35;

PONTIAC        CLOUDY    30  23  75 SE10      30.20S WCI  21
6HR MIN TEMP:  30; 6HR MAX TEMP:  33;

PORT HOPE        N/A     32  25  75 S5        30.21F WCI  27
6HR MIN TEMP:  32; 6HR MAX TEMP:  34;

PORT HURON     MOCLDY    28  23  80 SE3       30.25S
TRI CITIES     CLOUDY    34  24  67 SE9       30.21S WCI  27
6HR MIN TEMP:  34; 6HR MAX TEMP:  35;

TROY           CLOUDY    33  24  69 SE5       30.25S WCI  28
SAGINAW HB     CLOUDY    32  27  80 SE6       30.21S WCI  26
$$
MIZ043>046-050>051-056>058-064>065-071>073-077>080-220100-
SOUTHWEST LOWER MICHIGAN

CITY           SKY/WX    TMP DP  RH WIND       PRES   REMARKS
BATTLE CREEK   PTCLDY    32  24  72 SE8       30.16S WCI  25
6HR MIN TEMP:  32; 6HR MAX TEMP:  35;

BENTON HARBOR  MOCLDY    32  27  81 SE8       30.12F WCI  25
6HR MIN TEMP:  31; 6HR MAX TEMP:  37;

BIG RAPIDS     CLOUDY    32  28  86 SE7       30.13S WCI  26
6HR MIN TEMP:  32; 6HR MAX TEMP:  32;

COLDWATER      PTCLDY    30  26  83 MISG      30.16S
6HR MIN TEMP:  30; 6HR MAX TEMP:  33;

FREMONT        CLOUDY    33  27  78 SE7       30.13S WCI  26
HOLLAND        CLOUDY    36  27  69 SE12      30.13F WCI  28
6HR MIN TEMP:  35; 6HR MAX TEMP:  37;

GRAND RAPIDS   MOCLDY    29  23  78 SE8       30.15S WCI  21
6HR MIN TEMP:  29; 6HR MAX TEMP:  35;

IONIA          FAIR      31  28  86 SE9       30.15S WCI  23
KALAMAZOO      PTCLDY    32  24  72 SE8       30.15S WCI  25
6HR MIN TEMP:  32; 6HR MAX TEMP:  35;

LUDINGTON      CLOUDY    36  30  79 S9        30.10F WCI  29
6HR MIN TEMP:  36; 6HR MAX TEMP:  36;

MARSHALL       PTCLDY    29  25  84 SE6       30.16S WCI  23
MOUNT PLEASANT CLOUDY    32  29  86 SE7       30.17S WCI  26
6HR MIN TEMP:  32; 6HR MAX TEMP:  34;

MUSKEGON       CLOUDY    35  27  72 SE14      30.13S WCI  26
6HR MIN TEMP:  34; 6HR MAX TEMP:  35;

SOUTH HAVEN    MOCLDY    34  27  76 SE6       30.12F WCI  29
$$
MIZ016>042-220100-
NORTHERN LOWER MICHIGAN

CITY           SKY/WX    TMP DP  RH WIND       PRES   REMARKS
ALPENA         CLOUDY    30  27  88 SE7       30.19F WCI  23
6HR MIN TEMP:  30; 6HR MAX TEMP:  31;

BEAVER ISLAND  CLOUDY    34  31  90 S7        30.09S WCI  28
6HR MIN TEMP:  33; 6HR MAX TEMP:  34;

BELLAIRE       CLOUDY    33  28  82 S5        30.13S WCI  29
6HR MIN TEMP:  33; 6HR MAX TEMP:  34;

CADILLAC       CLOUDY    30  26  84 SE9       30.10S WCI  22
CHARLEVOIX     CLOUDY    32  29  89 SE9       30.14S WCI  24
6HR MIN TEMP:  32; 6HR MAX TEMP:  33;

FRANKFORT      CLOUDY    33  29  87 SE10      30.09F WCI  25
GAYLORD        CLOUDY    29  26  89 S10       30.11F FOG     WCI  20
6HR MIN TEMP:  29; 6HR MAX TEMP:  30;

GRAYLING       CLOUDY    31  28  90 SE7       30.14S WCI  24
6HR MIN TEMP:  29; 6HR MAX TEMP:  31;

HARBOR SPRINGS CLOUDY    32  28  83 CALM      30.12S
HOUGHTON LAKE  CLOUDY    30  26  85 SE9G17    30.14F WCI  22
6HR MIN TEMP:  30; 6HR MAX TEMP:  30;

MANISTEE       CLOUDY    34  27  75 SE7       30.10F WCI  28
OSCODA         CLOUDY    32  27  80 S6        30.20F WCI  26
PELLSTON       CLOUDY    32  28  85 SE10      30.13F WCI  24
6HR MIN TEMP:  29; 6HR MAX TEMP:  32;

ROGERS CITY    CLOUDY    31  30  93 S9        30.17S WCI  23
TRAVERSE CITY  CLOUDY    34  27  75 SE8       30.11S WCI  27
6HR MIN TEMP:  34; 6HR MAX TEMP:  35;

$$
MIZ007>008-015-220100-
EASTERN UPPER MICHIGAN

CITY           SKY/WX    TMP DP  RH WIND       PRES   REMARKS
KINROSS        CLOUDY    30  30 100 SE13      30.12F WCI  20
6HR MIN TEMP:  30; 6HR MAX TEMP:  30;

MACKINAC ISLAN CLOUDY    32  30  91 S12G18    30.12S WCI  23
6HR MIN TEMP:  29; 6HR MAX TEMP:  32;

NEWBERRY       CLOUDY    31  31 100 SE10      30.07S FOG     WCI  22
6HR MIN TEMP:  28; 6HR MAX TEMP:  31;

S. S. MARIE    CLOUDY    31  28  89 SE8       30.12F WCI  23
6HR MIN TEMP:  29; 6HR MAX TEMP:  31; 6HR PCP: TRACE;

MUNISING         N/A     38  32  79 S14       29.98F WCI  30
6HR MIN TEMP:  35; 6HR MAX TEMP:  38;

$$
MIZ004>006-011>014-085-220100-
CENTRAL UPPER MICHIGAN

CITY           SKY/WX    TMP DP  RH WIND       PRES   REMARKS
MANISTIQUE     CLOUDY    35  34  96 S9        30.04F WCI  28
ESCANABA       CLOUDY    37  32  81 S16       30.00S WCI  28
6HR MIN TEMP:  34; 6HR MAX TEMP:  37;

MENOMINEE      CLOUDY    36  32  87 S9        29.99F WCI  29
6HR MIN TEMP:  34; 6HR MAX TEMP:  36;

SAWYER-GWINN   LGT SNOW  34  32  93 S14G22    29.95S WCI  24
$$
MIZ001>003-009>011-084-220100-
WESTERN UPPER MICHIGAN

CITY           SKY/WX    TMP DP  RH WIND       PRES   REMARKS
IRON MOUNTAIN  LGT SNOW  33  31  92 SE13      29.93F FOG     WCI  24
6HR MIN TEMP:  29; 6HR MAX TEMP:  33; 6HR PCP: TRACE;

HOUGHTON       LGT SNOW  32  31  96 S10       29.88S VSB 1   WCI  24
6HR MIN TEMP:  32; 6HR MAX TEMP:  34; 6HR PCP:  0.04;

COPPER HARBOR    N/A     35  32  88 SW17G26   29.89F WCI  25
6HR MIN TEMP:  34; 6HR MAX TEMP:  35; 6HR PCP:  0.04;

IRONWOOD       CLOUDY    34  32  93 S6        29.78F WCI  29
6HR MIN TEMP:  34; 6HR MAX TEMP:  34;

$$

ABBREVIATIONS USED IN REMARKS
   TC - TEMPERATURE IN CELSIUS
  WCI - WIND CHILL INDEX
   HX - HEAT INDEX
  VSB - VISIBILITY




USA.gov is the U.S. government's official web portal to all federal, state and local government web resources and services.